Location: Windsor
(43.2292°N, 89.3015°W)
Time: 20:02:21
(UTC+00:00)

First-Move - Pass Details

Date: 03 July 2022
Orbit: 572 x 658 km, 97.6° (Epoch: 07 August)

Event Time Altitude Azimuth Distance (km) Brightness Sun altitude
Rises 09:44:25 0° 16° (NNE) 2,956 ? -6.4°
Reaches altitude 10° 09:46:39 10° 21° (NNE) 2,053 ? -6.0°
Maximum altitude 09:51:04 56° 100° (E) 779 ? -5.4°
Drops below altitude 10° 09:55:31 10° 179° (S) 2,064 ? -4.8°
Sets 09:57:46 0° 183° (S) 2,973 ? -4.5°
